Weather History for KLKV - December, 2013

Change the Weather History Date:

Wednesday, December 18, 2013

  Actual Average Record
Temperature  
Mean Temperature 21 °F -  
Max Temperature 39 °F 39 °F 54 °F (1958)
Min Temperature 3 °F 20 °F -7 °F (2008)
Degree Days  
Heating Degree Days 44    
Moisture  
Dew Point 17 °F    
Average Humidity 78    
Maximum Humidity 100    
Minimum Humidity 58    
Precipitation  
Precipitation 0.00 in - - ()
Sea Level Pressure  
Sea Level Pressure 29.96 in    
Wind  
Wind Speed 5 mph (NNW)    
Max Wind Speed 18 mph    
Max Gust Speed 26 mph    
Visibility 10 miles    
Events      
Averages and records for this station are not official NWS values.
T = Trace of Precipitation, MM = Missing Value Source: NWS Daily Summary

Daily Weather History Graph

Daily Weather History Graph

Search for Another Location

Airport or City:

Trip Planner

Search our weather history database for the weather conditions in past years. The results will help you decide how hot, cold, wet, or windy it might be!

Date:

Astronomy

Dec. 18, 2013 Rise Set
Actual Time 7:25 AM PST 4:31 PM PST
Civil Twilight 6:53 AM PST 5:03 PM PST
Nautical Twilight 6:18 AM PST 5:38 PM PST
Astronomical Twilight 5:44 AM PST 6:12 PM PST
Moon 6:09 PM PST (12/18) 8:07 AM PST (12/18)
Length of Visible Light 10h 09m
Length of Day
9h 06m
Full, 98% of the Moon is Illuminated
Dec 18
Full
Dec 25
Last Quarter
Jan 1
New
Jan 7
First Quarter
Jan 15
Full

Hourly Weather History & Observations

Time (PST) Temp. Windchill Dew Point Humidity Pressure Visibility Wind Dir Wind Speed Gust Speed Precip Events Conditions
12:15 AM 10.4 °F 4.0 °F 10.4 °F 100% 30.15 in 10.0 mi North 3.5 mph - N/A   Clear
12:35 AM 8.6 °F - 3.2 °F 79% 30.15 in 10.0 mi Calm Calm - N/A   Clear
12:55 AM 8.6 °F -2.6 °F 1.4 °F 73% 30.14 in 10.0 mi NNW 6.9 mph - N/A   Clear
1:15 AM 8.6 °F -2.6 °F 8.6 °F 100% 30.14 in 10.0 mi NNW 6.9 mph - N/A   Clear
1:35 AM 8.6 °F -2.6 °F 8.6 °F 100% 30.14 in 10.0 mi North 6.9 mph - N/A   Clear
1:55 AM 8.6 °F 0.1 °F 3.2 °F 79% 30.13 in 10.0 mi North 4.6 mph - N/A   Clear
2:15 AM 8.6 °F 2.0 °F 3.2 °F 79% 30.13 in 10.0 mi NNW 3.5 mph - N/A   Clear
2:35 AM 8.6 °F - 8.6 °F 100% 30.13 in 10.0 mi Calm Calm - N/A   Clear
2:55 AM 6.8 °F - 3.2 °F 85% 30.12 in 10.0 mi Calm Calm - N/A   Clear
3:15 AM 6.8 °F - -4.0 °F 61% 30.11 in 10.0 mi Calm Calm - N/A   Clear
3:35 AM 8.6 °F - 6.8 °F 92% 30.11 in 10.0 mi Calm Calm - N/A   Clear
3:55 AM 6.8 °F -2.0 °F - N/A% 30.10 in 10.0 mi NNW 4.6 mph - N/A   Clear
4:15 AM 5.0 °F -4.1 °F 1.4 °F 85% 30.09 in 10.0 mi North 4.6 mph - N/A   Clear
4:35 AM 6.8 °F -3.5 °F -2.2 °F 67% 30.09 in 10.0 mi NNW 5.8 mph - N/A   Clear
4:55 AM 6.8 °F -2.0 °F 5.0 °F 92% 30.08 in 10.0 mi North 4.6 mph - N/A   Clear
5:15 AM 6.8 °F -3.5 °F 6.8 °F 100% 30.08 in 10.0 mi NW 5.8 mph - N/A   Clear
5:35 AM 6.8 °F - -0.4 °F 72% 30.07 in 10.0 mi Calm Calm - N/A   Clear
5:55 AM 6.8 °F - -2.2 °F 67% 30.07 in 10.0 mi Calm Calm - N/A   Clear
6:15 AM 5.0 °F -2.1 °F 3.2 °F 92% 30.06 in 10.0 mi NNW 3.5 mph - N/A   Clear
6:35 AM 6.8 °F -0.1 °F 6.8 °F 100% 30.06 in 10.0 mi WNW 3.5 mph - N/A   Clear
6:55 AM 3.2 °F -4.2 °F -0.4 °F 85% 30.06 in 10.0 mi West 3.5 mph - N/A   Clear
7:15 AM 3.2 °F - -0.4 °F 85% 30.05 in 10.0 mi Calm Calm - N/A   Clear
7:35 AM 3.2 °F - 3.2 °F 100% 30.05 in 10.0 mi Calm Calm - N/A   Clear
7:55 AM 5.0 °F - 5.0 °F 100% 30.05 in 10.0 mi Calm Calm - N/A   Clear
8:15 AM 10.4 °F 2.2 °F 3.2 °F 73% 30.05 in 10.0 mi NW 4.6 mph - N/A   Clear
8:35 AM 14.0 °F - 14.0 °F 100% 30.05 in 10.0 mi Calm Calm - N/A   Clear
8:55 AM 21.2 °F - 8.6 °F 58% 30.06 in 10.0 mi Calm Calm - N/A   Clear
9:15 AM 24.8 °F - 17.6 °F 74% 30.05 in 10.0 mi Calm Calm - N/A   Clear
9:35 AM 21.2 °F 14.9 °F 17.6 °F 86% 30.04 in 10.0 mi SE 4.6 mph - N/A   Clear
9:55 AM 28.4 °F - 15.8 °F 59% 30.04 in 10.0 mi Calm Calm - N/A   Clear
10:15 AM 30.2 °F - 17.6 °F 60% 30.03 in 10.0 mi Calm Calm - N/A   Clear
10:35 AM 28.4 °F - 19.4 °F 69% 30.03 in 10.0 mi Calm Calm - N/A   Clear
10:55 AM 30.2 °F 26.7 °F 19.4 °F 64% 30.02 in 10.0 mi East 3.5 mph - N/A   Clear
11:15 AM 30.2 °F 25.4 °F 21.2 °F 69% 30.00 in 10.0 mi ESE 4.6 mph - N/A   Clear
11:35 AM 32.0 °F 27.5 °F 21.2 °F 64% 29.99 in 10.0 mi SE 4.6 mph - N/A   Clear
11:55 AM 33.8 °F 30.8 °F 21.2 °F 60% 29.97 in 10.0 mi SSE 3.5 mph - N/A   Clear
12:15 PM 35.6 °F 32.8 °F 23.0 °F 60% 29.96 in 10.0 mi SSW 3.5 mph - N/A   Clear
12:35 PM 37.4 °F 33.8 °F 24.8 °F 60% 29.94 in 10.0 mi South 4.6 mph - N/A   Clear
12:55 PM 35.6 °F 31.7 °F 24.8 °F 65% 29.92 in 10.0 mi South 4.6 mph - N/A   Clear
1:15 PM 37.4 °F 33.8 °F 26.6 °F 65% 29.91 in 10.0 mi SSW 4.6 mph - N/A   Clear
1:35 PM 39.2 °F 35.9 °F 28.4 °F 65% 29.90 in 10.0 mi South 4.6 mph - N/A   Partly Cloudy
1:55 PM 39.2 °F 35.0 °F 28.4 °F 65% 29.88 in 10.0 mi SSE 5.8 mph - N/A   Partly Cloudy
2:15 PM 37.4 °F 32.1 °F 28.4 °F 70% 29.87 in 10.0 mi SE 6.9 mph - N/A   Clear
2:35 PM 37.4 °F - 24.8 °F 60% 29.87 in 10.0 mi Calm Calm - N/A   Clear
2:55 PM 39.2 °F - 26.6 °F 61% 29.87 in 10.0 mi Calm Calm - N/A   Scattered Clouds
3:15 PM 37.4 °F 33.8 °F 28.4 °F 70% 29.87 in 10.0 mi West 4.6 mph - N/A   Overcast
3:35 PM 37.4 °F - 28.4 °F 70% 29.86 in 10.0 mi Calm Calm - N/A   Overcast
3:55 PM 35.6 °F - 28.4 °F 75% 29.86 in 10.0 mi Calm Calm - N/A   Overcast
4:15 PM 35.6 °F 32.8 °F 28.4 °F 75% 29.86 in 10.0 mi North 3.5 mph - N/A   Overcast
4:35 PM 33.8 °F 28.6 °F 28.4 °F 81% 29.86 in 10.0 mi NW 5.8 mph - N/A   Overcast
4:55 PM 33.8 °F 29.6 °F 26.6 °F 75% 29.85 in 10.0 mi NNW 4.6 mph - N/A   Overcast
5:15 PM 33.8 °F 29.6 °F 28.4 °F 81% 29.84 in 10.0 mi ENE 4.6 mph - N/A   Overcast
5:35 PM 33.8 °F 27.0 °F 26.6 °F 75% 29.82 in 10.0 mi ESE 8.1 mph - N/A   Overcast
5:55 PM 33.8 °F 27.7 °F 24.8 °F 70% 29.81 in 10.0 mi SE 6.9 mph - N/A   Overcast
6:15 PM 32.0 °F 26.4 °F 28.4 °F 87% 29.81 in 10.0 mi West 5.8 mph - N/A   Partly Cloudy
6:35 PM 30.2 °F 21.9 °F 24.8 °F 80% 29.82 in 10.0 mi NNW 9.2 mph - N/A   Clear
6:55 PM 30.2 °F 25.4 °F 23.0 °F 75% 29.82 in 10.0 mi North 4.6 mph - N/A   Mostly Cloudy
7:15 PM 35.6 °F 25.9 °F 26.6 °F 70% 29.81 in 10.0 mi North 16.1 mph 24.2 mph N/A   Overcast
7:35 PM 35.6 °F 25.5 °F 26.6 °F 70% 29.81 in 10.0 mi North 17.3 mph 20.7 mph N/A   Scattered Clouds
7:55 PM 33.8 °F 24.3 °F 28.4 °F 81% 29.82 in 10.0 mi North 13.8 mph - N/A   Clear
8:15 PM 33.8 °F 23.9 °F 28.4 °F 81% 29.81 in 10.0 mi North 15.0 mph 19.6 mph N/A   Mostly Cloudy
8:35 PM 33.8 °F 24.8 °F 26.6 °F 75% 29.81 in 10.0 mi North 12.7 mph 18.4 mph N/A   Overcast
8:55 PM 33.8 °F 25.3 °F 24.8 °F 70% 29.81 in 10.0 mi North 11.5 mph - N/A   Overcast
9:15 PM 33.8 °F 24.8 °F 26.6 °F 75% 29.82 in 10.0 mi North 12.7 mph 17.3 mph N/A   Overcast
9:35 PM 33.8 °F 24.8 °F 28.4 °F 81% 29.82 in 10.0 mi North 12.7 mph - N/A   Overcast
9:55 PM 32.0 °F 21.6 °F 28.4 °F 87% 29.82 in 10.0 mi North 15.0 mph 18.4 mph N/A   Overcast
10:15 PM 30.2 °F 19.8 °F 24.8 °F 80% 29.82 in 10.0 mi North 13.8 mph 20.7 mph N/A   Overcast
10:35 PM 30.2 °F 19.3 °F 26.6 °F 86% 29.82 in 10.0 mi North 15.0 mph 20.7 mph N/A   Overcast
10:55 PM 30.2 °F 18.9 °F 28.4 °F 93% 29.83 in 10.0 mi North 16.1 mph 23.0 mph N/A   Overcast
11:15 PM 30.2 °F 19.3 °F 28.4 °F 93% 29.84 in 10.0 mi North 15.0 mph 20.7 mph N/A   Overcast
11:35 PM 28.4 °F 15.8 °F 28.4 °F 100% 29.85 in 7.0 mi North 18.4 mph - N/A   Overcast
11:55 PM 28.4 °F 16.6 °F 24.8 °F 86% 29.85 in 10.0 mi North 16.1 mph 26.5 mph N/A   Mostly Cloudy